contact:dominique.lefevre@mio.osupytheas.fr, maurice.libes@osupytheas.fr, didier.mallarino@osupytheas.fr
Project:EMSO http://www.emso-fr.org/EMSO-France
Depth: 2436.0 m
Title:EMSO Ligure Ouest : Data MII capteur AQUADOPP
Date,Latitude,Longitude,X_East,Y_North,Z_Up,Amplitude_X,Amplitude_Y,Amplitude_Z,Batterie,SoundSpeed,Heading,Pitch,Roll,Pressure,TIS,Speed,Direction
, degrees North, degrees East, m.s-1, m.s-1,m.s-1, 1, 1, 1, Volt, m.s-1, degree, degree, degree, dbar, degree_C, m.s-1, degree
2024-04-15T00:04:03,42.805,6.029,0.016,-0.026,0.017,103.0,103.0,102.0,13.4,1505.2,2.2,-0.8,1.8,2471.717,13.29,0.03,148.4
2024-04-15T00:07:03,42.805,6.029,0.02,-0.013,0.019,103.0,104.0,101.0,13.4,1505.2,1.1,-0.7,1.8,2471.682,13.29,0.023,123.0
2024-04-15T00:10:03,42.805,6.029,0.012,-0.018,0.004,105.0,102.0,102.0,13.3,1505.2,355.6,-0.7,1.8,2471.702,13.29,0.021,146.3
2024-04-15T00:13:03,42.805,6.029,-0.008,-0.017,-0.029,103.0,104.0,101.0,13.4,1505.2,4.7,-0.8,1.8,2471.716,13.29,0.018,205.2
2024-04-15T00:16:03,42.805,6.029,-0.002,-0.013,0.006,104.0,105.0,101.0,13.3,1505.2,357.1,-0.8,1.8,2471.715,13.29,0.013,188.7
2024-04-15T00:19:05,42.805,6.029,-0.004,-0.028,-0.001,103.0,104.0,102.0,13.3,1505.2,6.5,-0.7,1.8,2471.701,13.29,0.028,188.1
2024-04-15T00:22:03,42.805,6.029,0.0,-0.021,0.004,102.0,103.0,102.0,13.3,1505.2,0.5,-0.7,1.8,2471.692,13.29,0.021,180.0
2024-04-15T00:25:03,42.805,6.029,-0.01,-0.007,-0.01,103.0,103.0,101.0,13.4,1505.2,356.5,-0.8,1.8,2471.677,13.29,0.012,235.0
2024-04-15T00:28:03,42.805,6.029,0.004,-0.011,-0.004,103.0,103.0,102.0,13.3,1505.2,1.1,-0.8,1.8,2471.695,13.29,0.011,160.0
2024-04-15T00:31:03,42.805,6.029,0.001,-0.032,0.009,103.0,102.0,101.0,13.3,1505.2,1.1,-0.8,1.8,2471.684,13.29,0.032,178.2
2024-04-15T00:34:03,42.805,6.029,-0.006,-0.04,0.006,104.0,102.0,101.0,13.3,1505.2,8.5,-0.8,1.8,2471.696,13.29,0.04,188.5
2024-04-15T00:37:03,42.805,6.029,-0.004,-0.027,-0.005,104.0,103.0,102.0,13.4,1505.2,357.6,-0.7,1.8,2471.661,13.29,0.027,188.4
2024-04-15T00:40:03,42.805,6.029,0.002,-0.024,-0.021,102.0,102.0,101.0,13.4,1505.2,3.1,-0.8,1.8,2471.67,13.29,0.024,175.2
2024-04-15T00:43:03,42.805,6.029,0.024,-0.031,0.018,103.0,103.0,100.0,13.4,1505.2,352.5,-0.8,1.8,2471.663,13.29,0.039,142.3
2024-04-15T00:46:03,42.805,6.029,-0.004,-0.047,0.003,102.0,103.0,102.0,13.4,1505.2,4.5,-0.7,1.8,2471.724,13.29,0.047,184.9
2024-04-15T00:49:03,42.805,6.029,0.012,-0.012,-0.015,105.0,102.0,101.0,13.3,1505.2,356.5,-0.7,1.8,2471.685,13.29,0.016,135.0
2024-04-15T00:52:03,42.805,6.029,-0.01,-0.007,-0.025,103.0,102.0,101.0,13.4,1505.2,8.3,-0.8,1.8,2471.674,13.29,0.012,235.0
2024-04-15T00:55:03,42.805,6.029,-0.011,-0.018,-0.004,103.0,101.0,102.0,13.3,1505.2,357.3,-0.8,1.8,2471.683,13.29,0.021,211.4
2024-04-15T00:58:03,42.805,6.029,-0.008,-0.055,0.003,102.0,103.0,101.0,13.4,1505.2,2.0,-0.8,1.8,2471.641,13.29,0.055,188.3
2024-04-15T01:04:03,42.805,6.029,0.013,-0.016,0.018,104.0,104.0,102.0,13.3,1505.2,357.7,-0.8,1.8,2471.708,13.28,0.02,140.9
2024-04-15T01:07:03,42.805,6.029,0.012,-0.018,0.001,104.0,103.0,102.0,13.4,1505.2,359.4,-0.8,1.8,2471.738,13.29,0.021,146.3
2024-04-15T01:10:03,42.805,6.029,-0.001,-0.022,-0.012,104.0,102.0,102.0,13.4,1505.2,1.7,-0.7,1.8,2471.707,13.29,0.022,182.6
2024-04-15T01:13:03,42.805,6.029,0.007,-0.016,0.031,103.0,103.0,101.0,13.4,1505.2,6.9,-0.7,1.8,2471.703,13.29,0.017,156.4
2024-04-15T01:16:03,42.805,6.029,0.004,-0.013,0.012,102.0,103.0,101.0,13.4,1505.2,6.5,-0.8,1.8,2471.689,13.29,0.013,162.9
2024-04-15T01:19:03,42.805,6.029,0.006,-0.025,-0.018,103.0,105.0,100.0,13.4,1505.2,0.0,-0.7,1.8,2471.672,13.29,0.025,166.5
2024-04-15T01:22:03,42.805,6.029,0.02,-0.026,0.009,104.0,103.0,101.0,13.3,1505.2,1.7,-0.8,1.8,2471.685,13.29,0.032,142.4
2024-04-15T01:25:03,42.805,6.029,-0.016,-0.02,-0.015,104.0,103.0,102.0,13.4,1505.2,3.9,-0.8,1.8,2471.703,13.29,0.025,218.7
2024-04-15T01:28:03,42.805,6.029,0.011,-0.016,-0.015,103.0,103.0,101.0,13.4,1505.2,1.1,-0.8,1.8,2471.675,13.29,0.019,145.5
2024-04-15T01:31:03,42.805,6.029,-0.005,-0.028,-0.012,103.0,103.0,102.0,13.4,1505.2,6.4,-0.7,1.8,2471.631,13.29,0.028,190.1
2024-04-15T01:34:03,42.805,6.029,-0.01,-0.028,-0.033,103.0,103.0,101.0,13.4,1505.2,357.3,-0.7,1.8,2471.682,13.29,0.029,199.6
2024-04-15T01:37:03,42.805,6.029,-0.01,-0.019,0.01,102.0,103.0,101.0,13.3,1505.2,1.0,-0.7,1.8,2471.688,13.29,0.021,207.8
2024-04-15T01:40:03,42.805,6.029,0.002,0.002,0.031,104.0,100.0,101.0,13.4,1505.2,357.1,-0.8,1.8,2471.676,13.29,0.002,45.0
2024-04-15T01:43:03,42.805,6.029,-0.022,-0.029,-0.024,105.0,102.0,101.0,13.4,1505.2,7.8,-0.7,1.8,2471.702,13.29,0.036,217.2
2024-04-15T01:46:03,42.805,6.029,0.0,-0.011,-0.008,103.0,102.0,101.0,13.3,1505.2,355.7,-0.8,1.8,2471.616,13.29,0.011,180.0
2024-04-15T01:49:03,42.805,6.029,0.005,-0.018,-0.018,104.0,102.0,101.0,13.4,1505.2,1.7,-0.7,1.8,2471.66,13.29,0.018,164.5
2024-04-15T01:52:03,42.805,6.029,0.005,-0.049,0.015,103.0,103.0,101.0,13.4,1505.2,9.9,-0.7,1.8,2471.706,13.29,0.049,174.2
2024-04-15T01:55:03,42.805,6.029,-0.01,-0.006,-0.002,104.0,102.0,101.0,13.4,1505.2,353.0,-0.8,1.8,2471.645,13.29,0.011,239.0
2024-04-15T01:58:03,42.805,6.029,-0.001,-0.008,-0.001,104.0,105.0,101.0,13.3,1505.2,3.9,-0.7,1.8,2471.678,13.29,0.008,187.1
2024-04-15T02:04:03,42.805,6.029,0.007,-0.013,-0.01,102.0,103.0,102.0,13.4,1505.2,6.5,-0.8,1.8,2471.687,13.29,0.014,151.7
2024-04-15T02:07:03,42.805,6.029,0.012,-0.015,-0.001,103.0,103.0,101.0,13.3,1505.2,356.3,-0.7,1.8,2471.688,13.29,0.019,141.3
2024-04-15T02:10:03,42.805,6.029,-0.002,-0.004,-0.005,103.0,104.0,102.0,13.3,1505.2,355.8,-0.7,1.8,2471.677,13.29,0.004,206.6
2024-04-15T02:13:03,42.805,6.029,0.002,-0.024,-0.018,104.0,103.0,102.0,13.3,1505.2,2.3,-0.8,1.8,2471.671,13.29,0.024,175.2
2024-04-15T02:16:03,42.805,6.029,0.013,-0.021,-0.009,103.0,102.0,101.0,13.4,1505.2,9.3,-0.8,1.9,2471.625,13.29,0.024,148.2
2024-04-15T02:19:03,42.805,6.029,0.018,-0.012,0.006,104.0,103.0,101.0,13.3,1505.2,353.4,-0.7,1.8,2471.665,13.29,0.021,123.7
2024-04-15T02:22:03,42.805,6.029,0.012,-0.023,0.0,102.0,102.0,101.0,13.4,1505.2,358.9,-0.8,1.8,2471.682,13.29,0.025,152.4
2024-04-15T02:25:03,42.805,6.029,-0.002,-0.016,0.01,102.0,105.0,102.0,13.3,1505.2,8.5,-0.8,1.8,2471.673,13.29,0.016,187.1
2024-04-15T02:28:03,42.805,6.029,-0.002,-0.015,-0.011,103.0,104.0,101.0,13.3,1505.2,5.0,-0.8,1.8,2471.68,13.29,0.015,187.6
2024-04-15T02:31:03,42.805,6.029,0.002,0.001,0.042,104.0,102.0,100.0,13.3,1505.2,357.7,-0.8,1.8,2471.684,13.29,0.002,63.4
2024-04-15T02:34:03,42.805,6.029,0.0,-0.031,0.008,102.0,103.0,100.0,13.3,1505.2,1.7,-0.8,1.8,2471.694,13.29,0.03,180.0
2024-04-15T02:37:03,42.805,6.029,-0.004,-0.028,-0.034,103.0,102.0,100.0,13.4,1505.2,4.7,-0.8,1.8,2471.646,13.29,0.028,188.1
2024-04-15T02:40:03,42.805,6.029,-0.013,-0.006,0.03,103.0,102.0,101.0,13.4,1505.2,3.3,-0.7,1.8,2471.62,13.29,0.014,245.2
2024-04-15T02:43:03,42.805,6.029,0.013,-0.021,0.016,103.0,102.0,100.0,13.4,1505.2,358.2,-0.8,1.8,2471.636,13.29,0.024,148.2
2024-04-15T02:46:03,42.805,6.029,-0.004,-0.011,-0.004,103.0,103.0,101.0,13.3,1505.2,357.7,-0.8,1.8,2471.655,13.29,0.011,200.0
2024-04-15T02:49:03,42.805,6.029,-0.001,-0.007,0.026,102.0,104.0,101.0,13.4,1505.2,358.2,-0.8,1.8,2471.669,13.29,0.007,188.1
2024-04-15T02:52:03,42.805,6.029,-0.007,-0.035,0.035,103.0,102.0,100.0,13.4,1505.2,8.8,-0.8,1.8,2471.656,13.29,0.035,191.3
2024-04-15T02:55:03,42.805,6.029,0.011,-0.012,0.006,104.0,103.0,100.0,13.4,1505.2,352.3,-0.7,1.8,2471.636,13.29,0.016,137.5
2024-04-15T02:58:03,42.805,6.029,0.011,-0.032,0.021,102.0,103.0,101.0,13.4,1505.2,2.0,-0.8,1.8,2471.656,13.29,0.033,161.0
2024-04-15T03:04:03,42.805,6.029,-0.007,-0.017,-0.001,103.0,103.0,99.0,13.4,1505.2,359.4,-0.7,1.8,2471.673,13.29,0.018,202.4
2024-04-15T03:07:03,42.805,6.029,0.011,-0.031,0.005,103.0,104.0,101.0,13.4,1505.2,357.1,-0.7,1.8,2471.698,13.29,0.032,160.5
2024-04-15T03:10:03,42.805,6.029,-0.004,-0.016,0.014,103.0,102.0,102.0,13.3,1505.2,355.7,-0.7,1.8,2471.651,13.29,0.016,194.0
2024-04-15T03:13:03,42.805,6.029,-0.011,-0.012,0.019,102.0,104.0,101.0,13.4,1505.2,2.9,-0.8,1.8,2471.627,13.29,0.016,222.5
2024-04-15T03:16:03,42.805,6.029,0.015,-0.011,0.064,101.0,104.0,102.0,13.4,1505.2,6.9,-0.7,1.8,2471.663,13.29,0.018,126.3
2024-04-15T03:19:03,42.805,6.029,0.008,-0.035,0.0,102.0,104.0,101.0,13.3,1505.2,3.5,-0.8,1.9,2471.636,13.29,0.035,167.1
2024-04-15T03:22:03,42.805,6.029,0.014,-0.03,0.006,103.0,102.0,102.0,13.4,1505.2,355.9,-0.8,1.8,2471.634,13.29,0.033,155.0
2024-04-15T03:25:03,42.805,6.029,-0.006,-0.012,0.006,102.0,104.0,101.0,13.3,1505.2,2.1,-0.8,1.8,2471.656,13.29,0.013,206.6
2024-04-15T03:28:03,42.805,6.029,-0.013,-0.024,0.003,104.0,104.0,101.0,13.4,1505.2,357.1,-0.7,1.8,2471.631,13.29,0.027,208.4
2024-04-15T03:31:03,42.805,6.029,-0.005,0.007,0.009,103.0,105.0,101.0,13.4,1505.2,359.4,-0.8,1.8,2471.646,13.29,0.008,324.5
2024-04-15T03:34:03,42.805,6.029,0.01,-0.011,0.011,103.0,103.0,102.0,13.4,1505.2,0.0,-0.8,1.8,2471.654,13.29,0.014,137.7
2024-04-15T03:37:03,42.805,6.029,-0.006,-0.013,0.0,104.0,103.0,101.0,13.4,1505.2,4.5,-0.8,1.8,2471.68,13.29,0.014,204.8
2024-04-15T03:40:03,42.805,6.029,-0.014,-0.021,-0.009,103.0,103.0,101.0,13.4,1505.2,5.6,-0.7,1.8,2471.631,13.29,0.025,213.7
2024-04-15T03:43:03,42.805,6.029,-0.014,-0.005,-0.011,104.0,103.0,101.0,13.4,1505.2,352.3,-0.8,1.8,2471.616,13.29,0.014,250.4
2024-04-15T03:46:03,42.805,6.029,-0.012,-0.013,-0.019,104.0,102.0,102.0,13.3,1505.2,5.0,-0.7,1.8,2471.647,13.29,0.017,222.7
2024-04-15T03:49:03,42.805,6.029,0.026,-0.039,0.017,103.0,103.0,101.0,13.3,1505.2,1.0,-0.8,1.8,2471.622,13.29,0.046,146.3
2024-04-15T03:52:03,42.805,6.029,0.009,-0.005,0.0,104.0,102.0,101.0,13.4,1505.2,2.3,-0.7,1.8,2471.678,13.29,0.01,119.1
2024-04-15T03:55:03,42.805,6.029,-0.009,-0.01,0.005,103.0,103.0,103.0,13.4,1505.2,357.3,-0.8,1.8,2471.597,13.29,0.013,222.0
2024-04-15T03:58:03,42.805,6.029,0.007,-0.018,0.013,104.0,101.0,102.0,13.4,1505.2,4.5,-0.7,1.9,2471.637,13.29,0.019,158.8
2024-04-15T04:04:03,42.805,6.029,-0.011,-0.028,-0.005,103.0,102.0,101.0,13.4,1505.2,8.6,-0.8,1.8,2471.655,13.29,0.03,201.4
2024-04-15T04:07:03,42.805,6.029,0.012,-0.028,0.02,103.0,104.0,103.0,13.4,1505.2,2.3,-0.8,1.8,2471.638,13.29,0.03,156.8
2024-04-15T04:10:03,42.805,6.029,-0.002,-0.026,0.003,103.0,103.0,101.0,13.4,1505.2,355.6,-0.8,1.8,2471.663,13.29,0.026,184.4
2024-04-15T04:13:03,42.805,6.029,0.016,-0.009,0.029,103.0,103.0,101.0,13.4,1505.2,356.3,-0.7,1.8,2471.64,13.29,0.018,119.4
2024-04-15T04:16:03,42.805,6.029,0.007,-0.006,0.003,104.0,105.0,101.0,13.4,1505.2,4.5,-0.7,1.8,2471.624,13.29,0.009,130.6
2024-04-15T04:19:03,42.805,6.029,0.001,-0.019,-0.002,104.0,104.0,100.0,13.3,1505.2,357.7,-0.7,1.8,2471.639,13.29,0.019,177.0
2024-04-15T04:22:03,42.805,6.029,0.013,-0.003,0.017,103.0,102.0,101.0,13.4,1505.2,8.5,-0.8,1.8,2471.621,13.29,0.013,103.0
2024-04-15T04:25:03,42.805,6.029,0.006,-0.009,0.009,104.0,104.0,101.0,13.4,1505.2,357.3,-0.8,1.8,2471.589,13.29,0.01,146.3
2024-04-15T04:28:03,42.805,6.029,0.008,-0.028,0.0,103.0,102.0,101.0,13.4,1505.2,352.1,-0.7,1.8,2471.622,13.29,0.029,164.1
2024-04-15T04:31:03,42.805,6.029,0.011,-0.028,0.028,104.0,104.0,101.0,13.4,1505.2,357.6,-0.7,1.8,2471.643,13.29,0.03,158.6
2024-04-15T04:34:03,42.805,6.029,-0.018,0.002,0.009,102.0,103.0,102.0,13.4,1505.2,3.8,-0.8,1.8,2471.608,13.29,0.018,276.3
2024-04-15T04:37:03,42.805,6.029,0.01,-0.035,0.008,104.0,101.0,101.0,13.3,1505.2,5.2,-0.8,1.8,2471.616,13.29,0.036,164.1
2024-04-15T04:40:03,42.805,6.029,-0.007,-0.02,-0.014,104.0,103.0,100.0,13.4,1505.2,4.6,-0.8,1.8,2471.595,13.29,0.021,199.3
2024-04-15T04:43:03,42.805,6.029,0.003,-0.025,-0.026,104.0,103.0,101.0,13.4,1505.2,356.6,-0.8,1.8,2471.628,13.29,0.025,173.2
2024-04-15T04:46:03,42.805,6.029,0.009,-0.035,0.008,103.0,104.0,99.0,13.3,1505.2,358.3,-0.8,1.8,2471.6,13.29,0.036,165.6
2024-04-15T04:49:03,42.805,6.029,0.004,0.0,0.044,103.0,103.0,103.0,13.4,1505.2,5.9,-0.8,1.8,2471.613,13.29,0.004,90.0
2024-04-15T04:52:03,42.805,6.029,0.008,-0.014,0.03,102.0,103.0,100.0,13.3,1505.2,355.6,-0.8,1.8,2471.626,13.29,0.016,150.3
2024-04-15T04:55:03,42.805,6.029,-0.001,-0.012,-0.008,102.0,103.0,102.0,13.3,1505.2,359.4,-0.7,1.8,2471.631,13.29,0.012,184.8
2024-04-15T04:58:03,42.805,6.029,0.0,0.013,0.013,105.0,103.0,101.0,13.4,1505.2,7.5,-0.8,1.8,2471.617,13.29,0.013,0.0
2024-04-15T05:04:03,42.805,6.029,0.008,-0.033,0.043,104.0,104.0,100.0,13.4,1505.2,7.9,-0.7,1.8,2471.634,13.29,0.033,166.4
2024-04-15T05:07:03,42.805,6.029,-0.002,-0.006,0.007,103.0,103.0,101.0,13.4,1505.2,8.5,-0.8,1.8,2471.62,13.29,0.006,198.4
2024-04-15T05:10:03,42.805,6.029,-0.003,0.0,-0.021,102.0,102.0,102.0,13.4,1505.2,0.0,-0.8,1.8,2471.642,13.29,0.003,270.0
2024-04-15T05:13:03,42.805,6.029,0.005,-0.002,0.006,104.0,103.0,101.0,13.4,1505.2,355.4,-0.8,1.8,2471.603,13.29,0.005,111.8
2024-04-15T05:16:03,42.805,6.029,0.017,-0.014,-0.027,103.0,103.0,102.0,13.4,1505.2,7.7,-0.8,1.8,2471.64,13.29,0.022,129.5
2024-04-15T05:19:03,42.805,6.029,0.011,-0.002,-0.004,104.0,102.0,102.0,13.4,1505.2,359.4,-0.7,1.8,2471.619,13.29,0.011,100.3
2024-04-15T05:22:03,42.805,6.029,-0.013,0.005,0.011,104.0,103.0,100.0,13.4,1505.2,8.5,-0.8,1.8,2471.578,13.29,0.013,291.0
2024-04-15T05:25:03,42.805,6.029,-0.008,-0.01,0.023,103.0,102.0,102.0,13.4,1505.2,3.9,-0.7,1.8,2471.611,13.29,0.012,218.7
2024-04-15T05:28:03,42.805,6.029,0.011,0.009,0.037,103.0,102.0,100.0,13.4,1505.2,355.7,-0.8,1.8,2471.643,13.29,0.014,50.7
2024-04-15T05:31:03,42.805,6.029,0.013,-0.008,0.021,104.0,103.0,102.0,13.4,1505.2,2.7,-0.8,1.8,2471.605,13.29,0.015,121.6
2024-04-15T05:34:03,42.805,6.029,0.015,-0.012,0.0,104.0,104.0,100.0,13.4,1505.2,356.0,-0.7,1.8,2471.603,13.29,0.019,128.7
2024-04-15T05:37:03,42.805,6.029,-0.001,-0.013,-0.004,103.0,101.0,102.0,13.4,1505.2,8.7,-0.7,1.8,2471.615,13.29,0.013,184.4
2024-04-15T05:40:03,42.805,6.029,0.012,-0.011,-0.008,104.0,102.0,102.0,13.4,1505.2,356.2,-0.8,1.8,2471.578,13.29,0.016,132.5
2024-04-15T05:43:03,42.805,6.029,0.003,-0.013,0.001,103.0,103.0,102.0,13.4,1505.2,352.5,-0.8,1.8,2471.607,13.29,0.013,167.0
2024-04-15T05:46:03,42.805,6.029,-0.002,-0.017,0.01,104.0,103.0,100.0,13.4,1505.2,4.6,-0.7,1.8,2471.575,13.29,0.017,186.7
2024-04-15T05:49:03,42.805,6.029,0.019,-0.005,0.022,103.0,103.0,102.0,13.4,1505.2,0.0,-0.8,1.8,2471.569,13.29,0.019,104.7
2024-04-15T05:52:03,42.805,6.029,0.017,-0.007,0.012,103.0,103.0,102.0,13.4,1505.2,358.8,-0.7,1.8,2471.643,13.29,0.018,112.4
2024-04-15T05:55:03,42.805,6.029,0.021,-0.009,0.025,104.0,103.0,101.0,13.3,1505.2,2.3,-0.8,1.8,2471.551,13.29,0.022,113.2
2024-04-15T05:58:03,42.805,6.029,-0.007,-0.014,-0.007,103.0,103.0,100.0,13.3,1505.2,2.9,-0.7,1.8,2471.594,13.29,0.015,206.6
2024-04-15T06:04:03,42.805,6.029,-0.01,-0.007,0.009,103.0,102.0,102.0,13.4,1505.2,0.0,-0.7,1.8,2471.643,13.29,0.012,235.0
2024-04-15T06:07:03,42.805,6.029,0.015,-0.009,0.006,103.0,103.0,101.0,13.3,1505.2,357.7,-0.8,1.8,2471.622,13.29,0.017,121.0
2024-04-15T06:10:03,42.805,6.029,0.008,-0.024,0.005,104.0,104.0,100.0,13.4,1505.2,0.5,-0.7,1.8,2471.607,13.29,0.025,161.6
2024-04-15T06:13:03,42.805,6.029,-0.007,-0.013,-0.034,103.0,103.0,101.0,13.4,1505.2,3.5,-0.7,1.8,2471.597,13.29,0.014,208.3
2024-04-15T06:16:03,42.805,6.029,0.001,-0.015,-0.007,104.0,103.0,102.0,13.4,1505.2,4.3,-0.8,1.8,2471.632,13.29,0.015,176.2
2024-04-15T06:19:03,42.805,6.029,0.005,-0.023,0.026,103.0,103.0,101.0,13.4,1505.2,0.5,-0.7,1.8,2471.627,13.29,0.023,167.7
2024-04-15T06:22:03,42.805,6.029,0.018,-0.026,0.026,103.0,103.0,103.0,13.4,1505.2,5.1,-0.7,1.8,2471.605,13.29,0.031,145.3
2024-04-15T06:25:03,42.805,6.029,0.002,0.019,0.019,103.0,103.0,101.0,13.4,1505.2,2.9,-0.7,1.8,2471.591,13.29,0.019,6.0
2024-04-15T06:28:03,42.805,6.029,0.007,-0.022,0.014,103.0,103.0,102.0,13.4,1505.2,8.3,-0.8,1.8,2471.584,13.29,0.023,162.4
2024-04-15T06:31:03,42.805,6.029,-0.002,-0.007,0.007,103.0,103.0,100.0,13.4,1505.2,8.7,-0.7,1.9,2471.623,13.29,0.007,195.9
2024-04-15T06:34:03,42.805,6.029,0.026,-0.012,0.003,102.0,104.0,102.0,13.3,1505.2,5.9,-0.7,1.8,2471.623,13.29,0.028,114.8
2024-04-15T06:37:03,42.805,6.029,0.026,-0.013,-0.013,103.0,104.0,101.0,13.4,1505.2,351.4,-0.8,1.8,2471.616,13.29,0.029,116.6
2024-04-15T06:40:03,42.805,6.029,0.009,-0.019,0.022,103.0,105.0,100.0,13.4,1505.2,5.1,-0.8,1.8,2471.576,13.29,0.021,154.7
2024-04-15T06:43:03,42.805,6.029,0.039,-0.018,0.049,102.0,104.0,101.0,13.4,1505.2,0.5,-0.7,1.8,2471.591,13.29,0.042,114.8
2024-04-15T06:46:03,42.805,6.029,-0.006,-0.004,0.005,105.0,103.0,101.0,13.4,1505.2,3.7,-0.8,1.8,2471.535,13.29,0.007,236.3
2024-04-15T06:49:03,42.805,6.029,0.011,-0.041,-0.005,103.0,104.0,103.0,13.4,1505.2,356.7,-0.7,1.8,2471.535,13.29,0.042,165.0
2024-04-15T06:52:03,42.805,6.029,0.0,0.004,0.029,102.0,103.0,101.0,13.3,1505.2,353.2,-0.8,1.8,2471.591,13.29,0.004,0.0
2024-04-15T06:55:03,42.805,6.029,-0.004,-0.011,-0.003,103.0,103.0,102.0,13.4,1505.2,1.1,-0.7,1.8,2471.601,13.29,0.011,200.0
2024-04-15T06:58:03,42.805,6.029,0.006,-0.026,-0.003,104.0,105.0,100.0,13.3,1505.2,358.8,-0.8,1.8,2471.549,13.29,0.026,167.0
2024-04-15T07:04:03,42.805,6.029,0.03,-0.018,-0.005,102.0,104.0,102.0,13.4,1505.2,355.8,-0.7,1.8,2471.582,13.29,0.034,121.0
2024-04-15T07:07:03,42.805,6.029,0.014,-0.01,0.011,103.0,103.0,101.0,13.3,1505.2,353.2,-0.8,1.8,2471.605,13.29,0.017,125.5
2024-04-15T07:10:03,42.805,6.029,0.011,-0.004,-0.014,105.0,104.0,101.0,13.3,1505.2,4.6,-0.8,1.8,2471.584,13.29,0.011,110.0
2024-04-15T07:13:03,42.805,6.029,0.009,-0.022,0.004,104.0,103.0,101.0,13.4,1505.2,353.0,-0.8,1.8,2471.584,13.29,0.023,157.8
2024-04-15T07:16:03,42.805,6.029,0.013,-0.014,0.001,103.0,103.0,101.0,13.4,1505.2,0.0,-0.8,1.8,2471.592,13.29,0.019,137.1
2024-04-15T07:19:03,42.805,6.029,0.004,0.004,0.018,102.0,104.0,102.0,13.4,1505.2,357.8,-0.7,1.8,2471.572,13.29,0.005,45.0
2024-04-15T07:22:03,42.805,6.029,0.024,-0.013,-0.006,103.0,104.0,101.0,13.4,1505.2,1.0,-0.7,1.8,2471.62,13.29,0.027,118.4
2024-04-15T07:25:03,42.805,6.029,0.024,-0.019,0.034,103.0,103.0,105.0,13.4,1505.2,3.3,-0.8,1.8,2471.609,13.29,0.03,128.4
2024-04-15T07:28:03,42.805,6.029,-0.001,0.005,0.01,104.0,103.0,102.0,13.3,1505.2,2.1,-0.8,1.8,2471.564,13.29,0.005,348.7
2024-04-15T07:31:03,42.805,6.029,0.011,-0.019,0.02,104.0,104.0,100.0,13.4,1505.2,6.9,-0.8,1.8,2471.564,13.29,0.021,149.9
2024-04-15T07:34:03,42.805,6.029,0.004,-0.019,0.002,102.0,104.0,101.0,13.3,1505.2,1.7,-0.7,1.8,2471.596,13.29,0.019,168.1
2024-04-15T07:37:03,42.805,6.029,0.001,0.002,0.027,106.0,102.0,101.0,13.3,1505.2,357.7,-0.8,1.8,2471.557,13.29,0.002,26.6
2024-04-15T07:40:03,42.805,6.029,0.001,0.009,0.02,103.0,106.0,101.0,13.4,1505.2,7.6,-0.7,1.8,2471.591,13.29,0.009,6.3
2024-04-15T07:43:03,42.805,6.029,0.005,-0.008,0.025,103.0,105.0,101.0,13.3,1505.2,353.2,-0.8,1.8,2471.557,13.29,0.009,148.0
2024-04-15T07:46:03,42.805,6.029,-0.002,-0.019,-0.001,103.0,103.0,102.0,13.4,1505.2,358.2,-0.7,1.8,2471.598,13.29,0.019,186.0
2024-04-15T07:49:03,42.805,6.029,-0.012,-0.019,-0.038,103.0,104.0,101.0,13.4,1505.2,3.5,-0.7,1.8,2471.561,13.29,0.022,212.3
2024-04-15T07:52:03,42.805,6.029,0.017,-0.012,0.025,103.0,103.0,102.0,13.4,1505.2,5.3,-0.8,1.8,2471.578,13.29,0.02,125.2
2024-04-15T07:55:03,42.805,6.029,0.006,-0.002,0.013,104.0,104.0,103.0,13.4,1505.2,2.3,-0.8,1.8,2471.532,13.29,0.006,108.4
2024-04-15T07:58:03,42.805,6.029,0.0,-0.002,-0.003,104.0,104.0,103.0,13.3,1505.2,5.5,-0.7,1.8,2471.578,13.29,0.002,180.0
2024-04-15T08:04:03,42.805,6.029,0.002,-0.008,0.015,104.0,104.0,102.0,13.4,1505.2,0.5,-0.8,1.8,2471.612,13.29,0.008,166.0
2024-04-15T08:07:03,42.805,6.029,0.016,0.003,0.008,104.0,103.0,102.0,13.4,1505.2,7.1,-0.7,1.8,2471.617,13.29,0.016,79.4
2024-04-15T08:10:03,42.805,6.029,0.008,-0.015,0.005,103.0,106.0,101.0,13.4,1505.2,1.0,-0.8,1.8,2471.604,13.29,0.017,151.9
2024-04-15T08:13:03,42.805,6.029,0.02,-0.025,0.024,104.0,103.0,102.0,13.3,1505.2,7.0,-0.7,1.8,2471.601,13.29,0.032,141.3
2024-04-15T08:16:03,42.805,6.029,0.02,-0.017,-0.01,104.0,102.0,101.0,13.3,1505.2,1.1,-0.8,1.8,2471.581,13.29,0.026,130.4
2024-04-15T08:19:03,42.805,6.029,0.008,-0.005,0.015,104.0,103.0,101.0,13.4,1505.2,3.3,-0.7,1.8,2471.58,13.29,0.009,122.0
2024-04-15T08:22:03,42.805,6.029,-0.002,0.009,0.027,105.0,104.0,101.0,13.3,1505.2,356.1,-0.8,1.8,2471.606,13.29,0.009,347.5
2024-04-15T08:25:03,42.805,6.029,0.01,-0.005,0.004,104.0,104.0,102.0,13.4,1505.2,354.2,-0.8,1.8,2471.625,13.29,0.011,116.6
2024-04-15T08:28:03,42.805,6.029,0.009,-0.008,0.005,104.0,103.0,102.0,13.4,1505.2,356.0,-0.8,1.8,2471.587,13.29,0.012,131.6
2024-04-15T08:31:03,42.805,6.029,0.013,-0.017,0.007,103.0,104.0,101.0,13.4,1505.2,7.8,-0.7,1.8,2471.601,13.29,0.021,142.6
2024-04-15T08:34:03,42.805,6.029,0.003,-0.012,-0.001,104.0,104.0,101.0,13.4,1505.2,355.1,-0.8,1.8,2471.589,13.29,0.012,166.0
2024-04-15T08:37:03,42.805,6.029,0.02,-0.003,0.02,103.0,103.0,102.0,13.3,1505.2,358.2,-0.8,1.8,2471.596,13.29,0.02,98.5
2024-04-15T08:40:03,42.805,6.029,0.025,0.006,0.01,104.0,103.0,101.0,13.3,1505.2,357.8,-0.8,1.8,2471.578,13.29,0.025,76.5
2024-04-15T08:43:03,42.805,6.029,0.016,0.004,0.013,103.0,104.0,101.0,13.3,1505.2,9.3,-0.8,1.8,2471.583,13.29,0.016,76.0
2024-04-15T08:46:03,42.805,6.029,0.013,-0.024,0.056,104.0,104.0,102.0,13.4,1505.2,356.3,-0.8,1.8,2471.585,13.29,0.027,151.6
2024-04-15T08:49:03,42.805,6.029,-0.012,0.008,0.007,105.0,103.0,99.0,13.3,1505.2,353.4,-0.7,1.8,2471.582,13.29,0.014,303.7
2024-04-15T08:52:03,42.805,6.029,0.034,-0.013,0.033,104.0,104.0,103.0,13.3,1505.2,2.9,-0.7,1.8,2471.581,13.29,0.036,110.9
2024-04-15T08:55:03,42.805,6.029,0.028,-0.013,-0.02,104.0,103.0,103.0,13.4,1505.2,6.1,-0.8,1.8,2471.564,13.29,0.03,114.9
2024-04-15T08:58:03,42.805,6.029,0.013,0.005,0.043,105.0,105.0,100.0,13.4,1505.2,353.3,-0.8,1.8,2471.579,13.29,0.013,69.0
2024-04-15T09:04:03,42.805,6.029,-0.005,0.001,-0.005,104.0,105.0,102.0,13.3,1505.2,0.0,-0.7,1.8,2471.613,13.29,0.005,281.3
2024-04-15T09:07:03,42.805,6.029,0.017,-0.017,0.032,103.0,103.0,101.0,13.4,1505.2,356.0,-0.8,1.8,2471.582,13.29,0.024,135.0
2024-04-15T09:10:03,42.805,6.029,0.001,-0.017,0.006,103.0,103.0,102.0,13.4,1505.2,3.5,-0.8,1.8,2471.613,13.29,0.017,176.6
2024-04-15T09:13:03,42.805,6.029,0.024,-0.012,0.01,103.0,103.0,102.0,13.3,1505.2,0.0,-0.8,1.8,2471.604,13.29,0.026,116.6
2024-04-15T09:16:03,42.805,6.029,0.017,-0.019,0.024,103.0,102.0,101.0,13.4,1505.2,1.5,-0.8,1.8,2471.609,13.29,0.025,138.2
2024-04-15T09:19:05,42.805,6.029,0.016,-0.009,0.007,103.0,104.0,101.0,13.4,1505.2,358.1,-0.8,1.8,2471.597,13.29,0.018,119.4
2024-04-15T09:22:03,42.805,6.029,0.02,0.0,0.002,104.0,103.0,102.0,13.3,1505.2,2.7,-0.8,1.8,2471.608,13.29,0.02,90.0
2024-04-15T09:25:03,42.805,6.029,0.025,-0.029,0.023,103.0,103.0,102.0,13.4,1505.2,3.5,-0.8,1.8,2471.6,13.29,0.038,139.2
2024-04-15T09:28:03,42.805,6.029,0.015,-0.002,0.036,104.0,104.0,102.0,13.4,1505.2,5.8,-0.7,1.8,2471.576,13.29,0.015,97.6
2024-04-15T09:31:03,42.805,6.029,0.011,0.001,0.016,104.0,103.0,102.0,13.3,1505.2,357.6,-0.7,1.8,2471.603,13.29,0.011,84.8
2024-04-15T09:34:03,42.805,6.029,0.021,-0.008,0.012,103.0,104.0,101.0,13.3,1505.2,0.5,-0.8,1.8,2471.587,13.29,0.022,110.9
2024-04-15T09:37:03,42.805,6.029,0.015,-0.02,0.012,103.0,104.0,102.0,13.3,1505.2,357.6,-0.8,1.8,2471.608,13.29,0.025,143.1
2024-04-15T09:40:03,42.805,6.029,0.001,-0.023,-0.012,104.0,104.0,102.0,13.4,1505.2,357.7,-0.8,1.8,2471.581,13.29,0.023,177.5
2024-04-15T09:43:03,42.805,6.029,-0.016,-0.009,0.019,103.0,104.0,101.0,13.4,1505.2,4.6,-0.8,1.8,2471.588,13.29,0.018,240.6
2024-04-15T09:46:03,42.805,6.029,0.022,-0.029,0.004,103.0,104.0,100.0,13.4,1505.2,356.6,-0.8,1.8,2471.61,13.29,0.036,142.8
2024-04-15T09:49:03,42.805,6.029,0.026,0.008,0.034,104.0,105.0,101.0,13.4,1505.2,356.5,-0.7,1.8,2471.585,13.29,0.027,72.9
2024-04-15T09:52:03,42.805,6.029,0.008,-0.004,0.021,104.0,103.0,102.0,13.4,1505.2,2.6,-0.8,1.8,2471.605,13.29,0.008,116.6
2024-04-15T09:55:03,42.805,6.029,0.031,0.006,0.025,103.0,103.0,101.0,13.3,1505.2,353.0,-0.8,1.8,2471.562,13.29,0.031,79.0
2024-04-15T09:58:03,42.805,6.029,0.015,0.004,0.042,104.0,104.0,101.0,13.4,1505.2,358.9,-0.8,1.8,2471.571,13.29,0.015,75.1
2024-04-15T10:04:03,42.805,6.029,0.012,-0.012,0.011,103.0,105.0,102.0,13.4,1505.2,1.5,-0.8,1.8,2471.622,13.28,0.016,135.0